Weather History for KARG - February, 2013

Change the Weather History Date:

Sunday, February 3, 2013

  Actual Average Record
Temperature  
Mean Temperature 44 °F -  
Max Temperature 53 °F 45 °F 66 °F (2003)
Min Temperature 35 °F 30 °F 10 °F (2014)
Degree Days  
Heating Degree Days 21    
Moisture  
Dew Point 29 °F    
Average Humidity 65    
Maximum Humidity 81    
Minimum Humidity 28    
Precipitation  
Precipitation 0.00 in - - ()
Sea Level Pressure  
Sea Level Pressure 30.15 in    
Wind  
Wind Speed 10 mph (WSW)    
Max Wind Speed 28 mph    
Max Gust Speed 33 mph    
Visibility 10 miles    
Events      
Averages and records for this station are not official NWS values.
T = Trace of Precipitation, MM = Missing Value Source: NWS Daily Summary

Daily Weather History Graph

Daily Weather History Graph

Search for Another Location

Airport or City:

Trip Planner

Search our weather history database for the weather conditions in past years. The results will help you decide how hot, cold, wet, or windy it might be!

Date:

Astronomy

Feb. 03, 2013 Rise Set
Actual Time 7:02 AM CST 5:32 PM CST
Civil Twilight 6:35 AM CST 5:59 PM CST
Nautical Twilight 6:05 AM CST 6:30 PM CST
Astronomical Twilight 5:35 AM CST 7:00 PM CST
Moon 12:30 AM CST (2/3) 11:11 AM CST (2/3)
Length of Visible Light 11h 23m
Length of Day
10h 30m
Waning Gibbous, 48% of the Moon is Illuminated
Feb 3
Waning Gibbous
Feb 10
New
Feb 17
First Quarter
Feb 25
Full
Mar 4
Last Quarter

Hourly Weather History & Observations

Time (CST) Temp. Windchill Dew Point Humidity Pressure Visibility Wind Dir Wind Speed Gust Speed Precip Events Conditions
12:15 AM 35.6 °F 28.0 °F 30.2 °F 81% 30.14 in 10.0 mi SSW 10.4 mph - N/A   Clear
12:35 AM 35.6 °F 29.2 °F 30.2 °F 81% 30.13 in 10.0 mi SW 8.1 mph - N/A   Clear
12:55 AM 37.4 °F 30.8 °F 28.4 °F 70% 30.13 in 10.0 mi SW 9.2 mph - N/A   Clear
1:55 AM 37.4 °F 31.4 °F 30.2 °F 75% 30.11 in 10.0 mi SW 8.1 mph - N/A   Clear
2:15 AM 37.4 °F 31.4 °F 30.2 °F 75% 30.10 in 10.0 mi SW 8.1 mph - N/A   Clear
2:35 AM 37.4 °F 31.4 °F 30.2 °F 75% 30.09 in 10.0 mi SW 8.1 mph - N/A   Clear
2:55 AM 35.6 °F 28.6 °F 30.2 °F 81% 30.12 in 10.0 mi WNW 9.2 mph - N/A   Clear
3:16 AM 37.4 °F 32.1 °F 30.2 °F 75% 30.12 in 10.0 mi WSW 6.9 mph - N/A   Clear
3:35 AM 37.4 °F 32.8 °F 28.4 °F 70% 30.11 in 10.0 mi WSW 5.8 mph - N/A   Clear
4:15 AM 39.2 °F 33.6 °F 30.2 °F 70% 30.12 in 10.0 mi West 8.1 mph - N/A   Clear
4:35 AM 39.2 °F 33.0 °F 28.4 °F 65% 30.12 in 10.0 mi West 9.2 mph - N/A   Clear
4:55 AM 39.2 °F 33.6 °F 28.4 °F 65% 30.13 in 10.0 mi West 8.1 mph - N/A   Clear
5:15 AM 37.4 °F 31.4 °F 28.4 °F 70% 30.13 in 10.0 mi WSW 8.1 mph - N/A   Clear
6:15 AM 37.4 °F 31.4 °F 28.4 °F 70% 30.14 in 10.0 mi WSW 8.1 mph - N/A   Clear
6:35 AM 37.4 °F 31.4 °F 28.4 °F 70% 30.15 in 10.0 mi West 8.1 mph - N/A   Clear
6:56 AM 37.4 °F 30.8 °F 28.4 °F 70% 30.16 in 10.0 mi WSW 9.2 mph - N/A   Clear
7:15 AM 39.2 °F 33.6 °F 30.2 °F 70% 30.16 in 10.0 mi West 8.1 mph - N/A   Clear
7:35 AM 39.2 °F 34.2 °F 28.4 °F 65% 30.18 in 10.0 mi West 6.9 mph - N/A   Clear
8:35 AM 44.6 °F 39.7 °F 30.2 °F 57% 30.19 in 10.0 mi West 9.2 mph - N/A   Clear
8:55 AM 44.6 °F 39.2 °F 30.2 °F 57% 30.18 in 10.0 mi West 10.4 mph - N/A   Clear
9:35 AM 46.4 °F 40.1 °F 30.2 °F 53% 30.18 in 10.0 mi West 15.0 mph - N/A   Clear
9:55 AM 46.4 °F 40.1 °F 28.4 °F 50% 30.18 in 10.0 mi West 15.0 mph - N/A   Clear
10:15 AM - - - N/A% 30.19 in 10.0 mi West 21.9 mph 25.3 mph N/A   Clear
10:36 AM - - - N/A% 30.20 in 10.0 mi WNW 19.6 mph 31.1 mph N/A   Clear
10:55 AM - - - N/A% 30.20 in 10.0 mi WNW 19.6 mph 28.8 mph N/A   Clear
11:15 AM - - - N/A% 30.20 in 10.0 mi NW 23.0 mph 31.1 mph N/A   Clear
11:55 AM - - - N/A% 30.20 in 10.0 mi NW 25.3 mph 33.4 mph N/A   Clear
12:15 PM - - - N/A% 30.19 in 10.0 mi NW 27.6 mph 33.4 mph N/A   Clear
12:35 PM - - - N/A% 30.18 in 10.0 mi NW 17.3 mph 29.9 mph N/A   Clear
1:15 PM - - - N/A% 30.17 in 10.0 mi NNW 19.6 mph - N/A   Clear
2:15 PM - - - N/A% 30.16 in 10.0 mi NW 17.3 mph - N/A   Clear
2:35 PM - - - N/A% 30.16 in 10.0 mi NW 16.1 mph 19.6 mph N/A   Clear
3:15 PM 53.6 °F - 21.2 °F 28% 30.17 in 10.0 mi NW 11.5 mph - N/A   Clear
3:55 PM 53.6 °F - 24.8 °F 33% 30.17 in 10.0 mi North 8.1 mph - N/A   Clear
4:35 PM 51.8 °F - 24.8 °F 35% 30.17 in 10.0 mi North 5.8 mph - N/A   Clear
5:35 PM 46.4 °F 43.5 °F 30.2 °F 53% 30.16 in 10.0 mi NNE 5.8 mph - N/A   Clear
5:55 PM 46.4 °F 42.9 °F 26.6 °F 46% 30.15 in 10.0 mi ENE 6.9 mph - N/A   Clear
6:16 PM 44.6 °F 41.4 °F 30.2 °F 57% 30.15 in 10.0 mi East 5.8 mph - N/A   Clear
6:35 PM 42.8 °F 38.6 °F 30.2 °F 61% 30.15 in 10.0 mi SE 6.9 mph - N/A   Clear
6:55 PM 42.8 °F 39.3 °F 30.2 °F 61% 30.15 in 10.0 mi ESE 5.8 mph - N/A   Clear
7:16 PM 42.8 °F 41.1 °F 30.2 °F 61% 30.15 in 10.0 mi ESE 3.5 mph - N/A   Clear
7:35 PM 41.0 °F 39.0 °F 30.2 °F 65% 30.15 in 10.0 mi SE 3.5 mph - N/A   Clear
7:55 PM 41.0 °F 37.1 °F 30.2 °F 65% 30.14 in 10.0 mi ESE 5.8 mph - N/A   Clear
8:15 PM 41.0 °F 37.1 °F 30.2 °F 65% 30.14 in 10.0 mi ESE 5.8 mph - N/A   Clear
8:35 PM 39.2 °F 34.2 °F 32.0 °F 75% 30.14 in 10.0 mi SE 6.9 mph - N/A   Clear
8:55 PM 39.2 °F 35.0 °F 30.2 °F 70% 30.14 in 10.0 mi SE 5.8 mph - N/A   Clear
9:15 PM 39.2 °F 34.2 °F 28.4 °F 65% 30.14 in 10.0 mi SE 6.9 mph - N/A   Clear
9:55 PM 39.2 °F 33.6 °F 28.4 °F 65% 30.12 in 10.0 mi SE 8.1 mph - N/A   Clear
10:16 PM 37.4 °F 32.1 °F 28.4 °F 70% 30.12 in 10.0 mi SSE 6.9 mph - N/A   Clear
10:35 PM 37.4 °F 32.1 °F 28.4 °F 70% 30.11 in 10.0 mi SSE 6.9 mph - N/A   Clear
10:55 PM 35.6 °F 29.9 °F 28.4 °F 75% 30.10 in 10.0 mi SSE 6.9 mph - N/A   Clear
11:15 PM 35.6 °F 29.9 °F 28.4 °F 75% 30.09 in 10.0 mi SSE 6.9 mph - N/A   Clear
11:55 PM 37.4 °F 31.4 °F 28.4 °F 70% 30.07 in 10.0 mi SSE 8.1 mph - N/A   Clear